Regional Weather Roundup
Issued by NWS

Home | Current Version | Previous Version | Graphics & Text | Print | Product List | Glossary On
Versions: 1 2 3 4 5 6 7 8 9 10 11 12 13 14 15 16 17 18 19 20 21 22 23 24 25 26 27 28 29 30 31 32 33 34 35 36 37 38 39 40 41 42 43 44 45 46 47 48 49 50
000
ASUS43 KMPX 220110
RWRMN
WEATHER ROUNDUP FOR MINNESOTA
NATIONAL WEATHER SERVICE TWIN CITIES/CHANHASSEN MN
800 PM CDT SUN SEP 21 2014


NOTE: "FAIR" INDICATES FEW OR NO CLOUDS BELOW 12,000 FEET WITH NO
SIGNIFICANT WEATHER AND/OR OBSTRUCTIONS TO VISIBILITY. N/A MEANS
CURRENT SKY AND/OR WEATHER CONDITIONS ARE NOT AVAILABLE.

MNZ060>063-068>070-220200-
   Twin Cities Metro

CITY           SKY/WX    TMP DP  RH WIND       PRES   REMARKS
TWIN CITIES    CLEAR     61  46  57 N3        30.19R
ST PAUL        CLEAR     58  46  64 N5        30.19R
CRYSTAL        CLEAR     58  48  69 N3        30.18R
BLAINE         CLEAR     59  46  63 N5        30.19R
LAKEVILLE      CLEAR     55  48  76 W6        30.19R
EDEN PRAIRIE   CLEAR     59  48  67 NW5       30.18R
SOUTH ST PAUL  CLEAR     60  46  59 N3        30.18R
LAKE ELMO      FAIR      55  46  71 N3        30.19R
$$
MNZ001>005-007-008-013>017-022>024-027-028-220200-
   Northwest Minnesota

CITY           SKY/WX    TMP DP  RH WIND       PRES   REMARKS
BEMIDJI        PTCLDY    54  48  81 W7        30.21S
HALLOCK        CLEAR     57  52  82 S5        30.17S
ROSEAU         MOCLDY    55  50  82 S3        30.18S
WARROAD        CLOUDY    55  52  88 SW3       30.18S
THIEF RVR FALL CLEAR     55  50  82 CALM      30.20S
CROOKSTON      CLEAR     55  50  82 CALM      30.20S
FOSSTON        CLEAR     52  45  76 CALM      30.22S
DETROIT LAKES  CLEAR     54  48  82 CALM      30.24S
MOORHEAD       CLEAR     57  54  88 E3        30.22S
PARK RAPIDS    CLEAR     49  45  86 NW6       30.22R
MAHNOMEN       FAIR      53  48  81 CALM      30.21F
$$
MNZ006-009>011-018-025>026-220200-
   North Central Minnesota

CITY           SKY/WX    TMP DP  RH WIND       PRES   REMARKS
BAUDETTE       CLEAR     53  48  83 VRB3      30.17S
FLAG ISLAND    CLOUDY    57  50  77 W7        30.15S
INTL FALLS     CLOUDY    54  49  83 NW3       30.16S
WASKISH        PTCLDY    55  52  88 CALM      30.19S
BIG FORK       MOCLDY    55  48  76 CALM      30.18S
LONGVILLE      CLOUDY    54  52  94 W5        30.20R
GRAND RAPIDS   CLEAR     50  45  81 CALM      30.18S
CRANE LAKE     CLOUDY    50  48  93 CALM      30.17S
ORR            MOCLDY    50  46  87 CALM      30.15R
COOK           CLEAR     52  46  82 CALM      30.17S
WALKER         FAIR      51  47  88 W3        30.20F
$$
MNZ012-019>021-037-220200-
   Northeast Minnesota

CITY           SKY/WX    TMP DP  RH WIND       PRES   REMARKS
DULUTH         CLEAR     53  43  68 W3        30.16R
ELY            CLEAR     46  43  87 CALM      30.16S
HIBBING        PTCLDY    49  45  86 CALM      30.17R
EVELETH        PTCLDY    50  45  81 CALM      30.17S
DULUTH HARBOR  CLEAR     63  45  51 NW6       30.17R
TWO HARBORS    CLEAR     50  43  76 CALM      30.14R
SILVER BAY     CLEAR     46  46 100 CALM      30.14R
GRAND MARAIS     N/A     48  45  89 NW3       30.13R
G MARAIS ARPRT CLEAR     48  37  66 NW5       30.14S
$$
MNZ029>031-032-039>041-046>048-054>057-064-220200-
   West Central Minnesota

CITY           SKY/WX    TMP DP  RH WIND       PRES   REMARKS
FERGUS FALLS   CLEAR     55  46  71 E3        30.22S
WHEATON        CLEAR     54  48  82 CALM      30.24S
MORRIS         CLEAR     55  50  82 NE3       30.22S
ALEXANDRIA     CLEAR     53  48  83 N5        30.24S
ELBOW LAKE     FAIR      55  49  82 E5        30.22S
WADENA         PTCLDY    54  48  82 W3        30.22S
GLENWOOD       CLEAR     54  48  82 NW3       30.23S
APPLETON       CLEAR     55  48  76 CALM      30.22S
BENSON         CLEAR     55  48  76 CALM      30.23R
ORTONVILLE     CLEAR     57  48  72 CALM      30.22S
MADISON        CLEAR     63  50  63 CALM      30.22F
WILLMAR        FAIR      55  48  76 CALM      30.24R
$$
MNZ033>034-036-042>043-049>051-058-059-220200-
   Central Minnesota

CITY           SKY/WX    TMP DP  RH WIND       PRES   REMARKS
ST CLOUD       CLEAR     58  50  75 NW6       30.20R
SAUK CENTRE    FAIR      53  48  85 W3        30.22S
PAYNESVILLE    CLEAR     52  47  86 SW3       30.23R
AITKIN         CLEAR     52  46  82 CALM      30.18S
PINE RIVER     PTCLDY    55  48  76 W3        30.23R
BRAINERD       MOCLDY    56  49  77 NW8       30.20R
STAPLES        CLEAR     52  46  82 NW6       30.22R
LONG PRAIRIE   FAIR      52  46  82 NW5       30.22S
LITTLE FALLS   CLEAR     55  48  76 CALM      30.21R
LITCHFIELD     CLEAR     57  52  82 W7        30.22R
BUFFALO        CLEAR     59  49  68 W5        30.21R
MAPLE LAKE     CLEAR     57  52  82 NW6       30.21R
$$
MNZ037-044-045-052-053-220200-
   East Central Minnesota

CITY           SKY/WX    TMP DP  RH WIND       PRES   REMARKS
PRINCETON      CLEAR     55  48  76 CALM      30.19R
MORA           CLEAR     52  46  82 CALM      30.20S
CAMBRIDGE      CLEAR     55  46  71 CALM      30.17S
RUSH CITY      PTCLDY    53  47  81 CALM      30.18S
MOOSE LAKE     CLEAR     54  46  76 NW5       30.16R
HINCKLEY       FAIR      52  50  93 CALM      30.18R
CLOQUET        CLEAR     52  46  82 W3        30.17R
MCGREGOR       CLEAR     52  46  82 CALM      30.19R
$$
MNZ071>073-080-081-089-090-097-098-220200-
   Southwest Minnesota

CITY           SKY/WX    TMP DP  RH WIND       PRES   REMARKS
MONTEVIDEO     CLEAR     55  48  76 CALM      30.24R
GRANITE FALLS  CLEAR     56  49  75 N5        30.24R
CANBY          CLEAR     57  50  76 CALM      30.24S
MARSHALL       CLEAR     59  46  63 N6        30.22S
REDWOOD FALLS  CLEAR     58  50  75 NW3       30.22R
OLIVIA         CLEAR     57  50  77 N5        30.21S
PIPESTONE      CLEAR     59  46  63 CALM      30.24S
WINDOM         CLEAR     54  46  76 N5        30.23S
WORTHINGTON    CLEAR     55  45  67 N6        30.24S
JACKSON        CLEAR     55  46  71 N3        30.23S
TRACY          CLEAR     56  49  75 CALM      30.23S
SLAYTON        CLEAR     55  47  74 CALM      30.24S
$$
MNZ065>067-074>077-082>085-091>093-220200-
   South Central Minnesota

CITY           SKY/WX    TMP DP  RH WIND       PRES   REMARKS
MANKATO        CLEAR     57  46  67 NW6       30.21R
NEW ULM        CLEAR     55  48  76 N6        30.22R
ST JAMES       PTCLDY    55  50  82 N3        30.23R
FAIRMONT       PTCLDY    55  45  67 NW3       30.22R
GLENCOE        CLEAR     58  49  74 W6        30.20R
FARIBAULT      CLEAR     55  48  76 W5        30.20R
OWATONNA       CLEAR     55  48  76 W6        30.20R
WASECA         CLEAR     50  45  81 W3        30.22R
ALBERT LEA     CLEAR     57  48  72 CALM      30.19S
$$
MNZ078>079-086>088-094>096-220200-
   Southeast Minnesota

CITY           SKY/WX    TMP DP  RH WIND       PRES   REMARKS
ROCHESTER      CLEAR     54  46  74 N7        30.19R
RED WING       CLEAR     54  48  82 N3        30.17R
STANTON        CLEAR     55  47  75 NW6       30.18R
DODGE CENTER   CLEAR     57  48  72 NW5       30.18S
WINONA         CLEAR     59  48  67 NW3       30.17R
AUSTIN         CLEAR     55  48  76 NW3       30.18S
PRESTON        CLEAR     53  50  89 N3        30.18R
$$
ABBREVIATIONS USED IN REMARKS
   TC - TEMPERATURES IN CELSIUS
  WCI - WIND CHILL INDEX
   HX - HEAT INDEX
  VSB - VISIBILITY
$$



USA.gov is the U.S. government's official web portal to all federal, state and local government web resources and services.